Flag for U.S.A. Weather past 2 weeks in Chula Vista, California, U.S.A.

Now
78 °F

Sunny.


Feels Like: 80 °F
Forecast: 60 / 78 °F
Wind: 10 mph from Northwest

Location: Brown Field Municipal Airport

Current Time: Sep 30, 2014 at 1:22:34 PM

Latest Report: Sep 30, 2014 at 12:53 PM


Visibility: 10 mi

Pressure: 29.82 "Hg

Humidity: 60%

Dew point: 63 °F

Location of Chula VistaLocation

Historic Weather in Chula Vista — Graph

°F

Chula Vista temperature yesterday

Maximum temperature yesterday: 76 °F (at 11:53 AM)
Minimum temperature yesterday: 56 °F (at 5:53 AM)
Average temperature yesterday: 67 °F

Past Weeks' High & Low Weather Summary

 TemperatureHumidityPressure
High101 °F (Sep 16, 12:53 PM)100% (Sep 23, 5:53 AM)30.00 "Hg (Sep 23, 5:53 AM)
Low56 °F (Sep 29, 5:53 AM)30% (Sep 16, 12:53 PM)29.68 "Hg (Sep 16, 3:53 PM)
Average72 °F73%29.86 "Hg
* Reported Sep 15 11:53 AM — Sep 30 11:53 AM, Chula Vista, Weather by CustomWeather, © 2014

Note: Actual official high and low records may vary slightly from our data, if they occured in-between our weather recording intervals... More about our weather records

Advertising

Chula Vista weather history for previous 24 hours

 ConditionsComfort  
Time TempWeatherWind HumidityBarometerVisibility
11:53 AM
Sep 30
78 °FSunny.7 mph52%29.83 "Hg10 mi
10:53 AM79 °FSunny.7 mph45%29.84 "Hg10 mi
9:53 AM76 °FSunny.No wind50%29.85 "Hg10 mi
8:53 AM72 °FSunny.3 mph53%29.86 "Hg10 mi
7:53 AM66 °FSunny.6 mph68%29.85 "Hg10 mi
6:53 AM61 °FClear.No wind78%29.84 "Hg10 mi
5:53 AM61 °FClear.5 mph81%29.84 "Hg10 mi
4:53 AM62 °FClear.5 mph83%29.84 "Hg10 mi
3:53 AM64 °FClear.9 mph81%29.83 "Hg10 mi
2:53 AM64 °FClear.8 mph81%29.86 "Hg10 mi
1:53 AM63 °FClear.6 mph81%29.87 "Hg10 mi
12:53 AM63 °FClear.No wind81%29.88 "Hg10 mi
11:53 PM
Sep 29
65 °FClear.No wind76%29.88 "Hg10 mi
10:53 PM66 °FClear.3 mph78%29.88 "Hg10 mi
9:53 PM67 °FClear.5 mph81%29.88 "Hg10 mi
8:53 PM67 °FClear.6 mph76%29.87 "Hg10 mi
7:53 PM67 °FClear.8 mph81%29.86 "Hg10 mi
6:53 PM68 °FSunny.7 mph78%29.85 "Hg10 mi
5:53 PM72 °FSunny.7 mph66%29.84 "Hg10 mi
4:53 PM74 °FSunny.9 mph62%29.84 "Hg10 mi
3:53 PM75 °FSunny.9 mph60%29.84 "Hg10 mi
2:53 PM75 °FSunny.15 mph58%29.83 "Hg10 mi
1:53 PM76 °FSunny.10 mph54%29.84 "Hg10 mi
Weather by CustomWeather, © 2014

See weather overviewHow to use our weather pages